Retour au catalogue

STARLINK-37320

ActifCommunicationsVLEO
NORAD 68711·PAYLOAD·🇺🇸 United States

Lancé Apr 14, 2026 depuis Cape Canaveral Space Force Station

Loading…

Prochains Passages (prochaines 24 heures)

TLE

FraisSource: CelesTrak SupGP

Époque: Sep 15, 2026, 04:11 UTC

1 68711C 26081N   26258.17479167 -.00047603  00000+0 -14065-2 0  2582
2 68711  53.1582 230.6824 0001360  88.4638 140.2763 15.34413744    11

Suivez STARLINK-37320 en temps réel avec AllMySat

Download on the App Store